Other Surface Observations
Issued by NWS

Home | Current Version | Previous Version | Text Only | Print | Product List | Glossary On
Versions: 1 2 3 4 5 6 7 8 9 10 11 12 13 14 15 16 17 18 19 20 21 22 23 24 25 26 27 28 29 30 31 32 33 34 35 36 37 38 39 40 41 42 43 44 45 46 47 48 49 50
000
SXUS52 KTAE 301418
OSOTAE
OSOTAE
North Florida/South Alabama/Southwest Georgia Weather Roundup
National Weather Service Tallahassee Florida
1000 AM EDT TUE SEP 30 2014

Note: "fair" indicates few or no clouds below 12,000 feet with no
significant weather and/or obstructions to visibility.

!FLZ017-115-028-034-025-301500
...North Florida...

CITY           SKY/WX    TMP DP  RH WIND       PRES   REMARKS
TALLAHASSEE    CLOUDY    73  69  87 E8        29.90R
APALACHICOLA   PTSUNNY   77  71  82 NE12      29.87R
PERRY          CLOUDY    61  59  94 NE7       29.90R
CROSS CITY       N/A     75  72  90 NE7       29.86S
JACKSONVILLE   CLOUDY    71  70  96 N8        29.87R
$$

!FLZ112-006-005-002-011-301500
...Florida Panhandle...

CITY           SKY/WX    TMP DP  RH WIND       PRES   REMARKS
MARIANNA       CLOUDY    71  70  96 NE9       29.91S
BONIFAY        CLOUDY    75  68  78 N8        29.92S
PANAMA CITY NW CLOUDY    74  69  85 N5        29.90R
TYNDALL AFB    CLOUDY    74  74  99 VRB6      29.90R
TYND DRONE APT NOT AVBL
DE FUNIAK SPR  CLOUDY    72  68  86 N7        29.92S
EGLIN AFB      CLOUDY    74  69  85 NE6       29.91R
DESTIN         CLOUDY    75  70  84 NE6       29.91R
HURLBURT       CLOUDY    74  68  81 NE7       29.90R
CRESTVIEW      CLOUDY    74  70  87 NE6       29.94R
PENSACOLA      CLOUDY    73  68  84 NE7       29.92R
$$

!ALZ063-066-301500
...South Alabama...

CITY           SKY/WX    TMP DP  RH WIND       PRES   REMARKS
DOTHAN         CLOUDY    70  66  88 NE6       29.97R
OZARK CAIRNS   CLOUDY    71  66  82 NE8       29.93R
FT RUCKER HELI CLOUDY    70  66  87 NE7       29.93R
RUCKER HELI 3  CLOUDY    69  67  93 NE7       29.96R
RUCKER HELI 2  CLOUDY    71  66  84 N12       29.94R
FLORALA APT    CLOUDY    73  68  84 N7        29.95R
ANDALUSIA      CLOUDY    75  67  76 E3        29.94R
TROY           CLOUDY    71  66  84 NE7       29.96S
EUFALA         PTSUNNY   77  66  69 NE6       29.93S
MOBILE         CLOUDY    69  69 100 VRB3      29.94R FOG
$$

!GAZ120>161-301500
...Southwest and South Central Georgia...

CITY           SKY/WX    TMP DP  RH WIND       PRES   REMARKS
THOMASVILLE    CLOUDY    72  72 100 NE7       29.92S
BAINBRIDGE     CLOUDY    73  72  94 NE6       29.92S FOG
MOODY AFB      CLOUDY    70  68  94 NE7       29.91S
VALDOSTA       CLOUDY    70  68  94 NE8       29.91S
MOULTRIE       CLOUDY    70  70 100 NE7       29.93S
BLAKELY        CLOUDY    72  68  88 NE7         N/A
ALBANY         CLOUDY    70  66  87 N8        29.95S
TIFTON         CLOUDY    68  67  96 NE3       29.93S
FITZGERALD     CLOUDY    71  68  91 NE3       29.96R
CORDELE        CLOUDY    70  67  91 NE5       29.95S
AMERICUS       CLOUDY    68  68 100 N6        29.97R
HOMERVILLE     CLOUDY    70  70 100 N6        29.92S
$$

!GMZ750-755-770-775-301500
...Coastal and Buoy Obs...

STATION/POSITION TIME  TEMP    WIND        PRES    VSBY  WAVE
                       AIR SEA DIR/SP/G                  HT/PER
                 (UTC) (F)     (DEG/KT/KT) (MB)    (MI)  (FT/S)
KEATON BEACH     1400   71      40/  6/ 10 1011.8R
CEDAR KEY        1400   75      20/  3/  4 1011.6R
C TOWER          1400   77      50/ 13/ 14 1011.1R
APALACHICOLA BUO 1400   76 82   60/  8/  8 1010.7R         2/ 4
PANAMA CITY BUOY 1323   79 83   10/ 14/ 16 1010.7R         3/ 5
MOBILE BUOY      1307   78 82  130/  6/  8 1012.3R         2/ 4
ORANGE BCH AL BU 1400   76 82   50/ 14/ 17 1012.4R         2/ 4
$$



USA.gov is the U.S. government's official web portal to all federal, state and local government web resources and services.